Tracking 19562 objects as of 24-Mar-2019
HD Live streaming from Space Station
objects crossing your sky now

COSMOS 711

Track COSMOS 711 now!
10-day predictions
COSMOS 711 is classified as:


NORAD ID: 7678
Int'l Code: 1975-016A
Perigee: 1,468.1 km
Apogee: 1,500.0 km
Inclination: 74.0 °
Period: 115.5 minutes
Semi major axis: 7855 km
RCS: 0.7171 m2 (medium)
Launch date: February 28, 1975
Source: Commonwealth of Independent States (former USSR) (CIS)
Launch site: PLESETSK MISSILE AND SPACE COMPLEX (PKMTR)
aabbcc
Your satellite tracking list
Your tracking list is empty




NASA's NSSDC Master Catalog

Two Line Element Set (TLE):
1  7678U 75016A   19082.82652949 -.00000004 +00000-0 +82568-4 0  9990
2  7678 074.0040 317.3884 0020320 262.6052 169.0912 12.47044552005927
Source of the keplerian elements: AFSPC